RH
25 21 20 21 23 25 28 30 31 33 35 36 36 34 33 34 35 36 36 35 34 31 28 24 19 16 15 13 11 7 5 5 5 4 4 3 3 3 3 3 3 3 3 3 2 3 2 2 3 3 3 3 3 4 5 7 9 11 13 14 16 16 15 16 16 15 15 15 19 33 54 65 61 62 69 61 52 65 79 78 74 68 56 43 36
25 21 21 23 25 29 33 36 35 35 36 36 35 33 33 35 36 36 37 36 35 32 29 25 21 17 15 14 12 8 6 5 4 4 4 4 3 3 3 3 3 3 3 3 3 3 3 3 3 2 3 3 3 3 3 5 7 8 10 12 14 16 16 16 16 15 16 16 16 19 30 48 58 61 63 60 54 60 73 77 76 73 70 63 48
25 21 24 26 29 35 39 40 38 37 37 36 34 32 34 36 37 37 37 37 36 34 31 26 22 19 16 15 13 10 7 6 5 4 4 4 4 4 4 3 3 3 3 3 3 3 3 3 3 3 3 3 3 3 3 3 4 6 7 10 11 14 16 16 17 16 16 16 17 17 18 24 38 52 60 61 59 63 69 71 71 71 74 77 69
25 23 26 29 36 41 43 42 41 39 37 35 33 33 35 37 37 37 38 38 37 35 32 29 25 21 18 16 14 12 9 7 6 5 5 4 4 4 4 4 3 3 3 3 3 3 3 3 3 3 3 3 3 2 3 3 3 4 5 7 9 11 13 15 17 17 16 17 17 18 18 17 19 30 47 58 61 67 73 72 66 65 69 77 83
25 26 30 37 44 45 43 43 43 40 37 34 33 34 36 38 37 37 38 38 38 37 35 32 28 23 19 16 15 13 11 10 8 6 5 4 4 4 4 4 3 3 3 3 3 3 3 3 3 3 3 3 3 2 3 3 3 3 3 5 6 8 11 13 15 17 17 17 18 18 18 19 17 16 25 40 54 68 75 75 70 63 62 67 77
26 31 40 47 49 46 45 45 43 41 37 35 35 36 37 38 38 37 38 38 38 38 37 34 31 27 22 18 15 14 12 11 10 8 7 6 4 4 4 4 4 3 3 3 3 3 3 3 3 3 3 3 3 3 2 3 3 3 3 3 4 6 8 10 13 15 17 17 18 18 18 18 19 17 17 21 35 55 70 78 77 69 62 60 63
30 42 52 52 48 46 46 45 42 39 38 37 37 38 38 38 38 38 38 39 39 39 38 37 35 30 25 20 16 14 13 12 12 10 8 7 6 4 4 4 4 3 3 3 3 3 3 3 3 3 3 3 3 3 3 3 3 2 3 3 3 4 5 8 11 12 14 17 18 19 19 18 18 18 18 17 20 32 51 69 79 78 72 65 59
43 54 56 51 48 48 47 44 41 39 39 39 39 39 38 38 38 39 38 39 39 40 40 39 38 34 29 23 18 15 14 13 12 12 10 9 8 6 4 4 4 4 3 3 3 3 3 3 3 3 3 3 3 3 3 3 3 3 2 3 3 3 4 5 8 10 12 14 17 19 19 19 19 18 18 18 17 19 28 44 61 75 80 76 67
56 57 53 51 51 50 47 44 42 41 40 40 40 40 39 39 39 39 39 39 39 40 41 41 40 38 33 26 21 16 14 13 13 13 12 10 9 8 6 4 4 4 4 3 3 3 3 3 3 3 3 3 3 3 3 3 3 3 2 3 3 3 3 4 5 7 9 11 14 17 19 20 19 19 19 18 18 18 18 24 34 51 69 80 78
58 56 55 54 53 50 48 45 43 42 40 40 41 41 40 40 39 39 40 39 40 41 41 42 42 40 37 31 24 19 14 13 13 13 13 12 10 9 8 6 4 4 4 3 3 3 3 4 3 3 4 3 3 3 3 3 3 3 3 3 3 2 3 3 4 4 6 9 11 13 17 20 20 20 19 19 18 19 19 19 20 27 42 59 72
57 57 57 54 52 50 48 45 43 40 38 40 42 42 41 41 40 40 40 40 40 41 41 42 42 43 41 36 29 22 17 13 12 13 14 13 12 10 10 8 5 4 4 4 4 3 3 3 3 4 3 3 3 3 3 3 3 3 3 3 3 3 3 3 3 3 4 6 8 11 13 17 20 21 21 20 19 19 19 19 19 19 23 30 44
58 56 54 53 51 49 46 44 41 39 39 41 43 44 44 42 40 40 40 41 41 41 41 42 44 44 44 40 33 27 20 15 12 12 13 14 14 12 10 10 7 5 4 4 4 4 3 3 3 3 4 3 4 3 3 3 3 3 3 3 3 3 3 3 3 3 3 4 5 8 11 13 16 19 21 21 20 19 19 19 19 18 19 20 23
55 53 53 52 50 47 45 42 40 40 42 44 45 45 45 43 42 40 40 41 41 41 42 43 45 46 46 44 38 30 24 18 13 12 13 13 14 13 11 11 9 6 5 4 4 4 3 3 3 3 3 3 3 3 3 3 3 3 3 3 3 3 3 3 3 3 3 3 4 5 7 10 13 16 19 21 21 21 19 19 20 19 18 20 20
52 53 52 50 49 47 44 42 43 44 46 47 46 45 45 44 44 42 40 41 42 43 44 45 46 47 46 45 41 34 27 21 15 12 13 13 13 14 12 11 10 8 5 4 4 4 4 3 4 3 3 3 3 4 4 3 3 3 3 3 3 3 3 3 3 3 3 3 3 4 5 7 10 13 16 18 20 21 21 20 19 20 19 18 20
53 52 49 47 46 45 45 45 46 48 47 47 47 46 45 46 46 45 43 42 43 44 45 46 47 47 46 45 42 37 29 23 18 13 12 13 13 14 13 12 11 10 7 5 4 5 4 4 3 4 4 3 3 3 3 4 4 3 3 3 3 3 3 3 3 3 3 3 3 3 4 4 6 10 13 16 18 20 21 22 20 20 20 19 19
50 48 45 43 43 44 46 48 49 49 48 46 47 47 47 47 47 47 46 45 45 45 47 47 47 47 46 44 42 39 32 25 19 14 12 13 13 14 14 13 12 11 9 6 4 4 4 4 4 4 4 4 3 3 3 3 3 4 3 3 3 3 3 3 3 3 3 3 3 3 3 4 4 6 9 12 15 18 19 21 22 21 20 20 19
48 46 43 42 43 45 47 49 50 49 48 46 47 47 47 48 48 49 49 48 48 47 47 48 47 47 46 45 42 39 33 26 21 16 13 12 13 13 14 15 13 12 10 8 5 4 4 4 4 4 4 4 4 3 3 4 3 3 4 3 3 3 3 3 3 3 3 3 3 3 3 3 3 4 6 8 12 15 17 19 21 22 22 21 20
48 46 46 46 46 45 46 49 49 48 47 46 46 46 47 49 50 51 52 52 50 49 47 47 47 47 46 45 42 38 34 27 21 17 14 13 13 13 14 15 15 13 11 10 7 5 4 4 4 4 4 4 4 4 3 3 3 3 4 4 4 3 3 3 3 3 3 3 3 3 3 3 3 3 3 5 8 10 14 17 19 20 22 22 22
51 52 52 51 49 47 47 47 47 47 47 46 46 46 47 49 52 53 53 53 52 50 48 47 46 45 44 43 41 38 34 28 22 18 15 13 13 13 13 15 16 15 13 11 9 6 4 4 4 4 4 3 3 4 4 3 3 3 3 3 4 4 3 3 3 3 3 3 3 3 4 3 3 3 3 3 5 6 9 12 16 18 20 22 23
56 57 57 57 54 51 49 47 46 46 47 48 49 49 49 50 51 53 52 52 52 51 50 48 45 43 42 41 39 36 33 28 23 18 15 14 13 13 13 14 16 16 14 12 11 8 5 4 5 4 4 4 3 3 4 4 4 3 3 4 3 4 4 4 4 3 3 3 3 3 3 4 3 3 3 4 3 4 6 7 10 15 18 20 22
58 60 62 63 60 56 53 50 47 48 50 52 52 52 51 50 50 51 50 50 50 50 49 48 46 43 40 39 37 34 31 27 22 18 15 14 14 14 13 13 15 17 16 14 12 10 7 5 5 4 4 4 4 3 4 4 4 4 3 3 3 3 4 4 4 4 4 3 3 3 3 3 4 3 3 3 4 3 4 5 6 9 13 17 20
61 65 67 67 64 60 58 55 53 53 54 55 55 54 52 49 48 48 47 47 47 47 47 46 45 42 38 35 33 31 29 25 22 18 15 14 14 14 14 13 14 16 17 15 13 12 9 6 4 5 4 4 4 4 3 4 4 4 4 3 3 3 3 4 4 3 4 4 3 3 3 3 3 3 3 3 3 4 3 4 4 5 7 10 15
66 69 69 68 66 64 63 62 60 59 59 58 56 53 51 48 47 46 44 44 44 44 43 42 41 39 35 32 29 27 25 23 21 18 15 14 14 14 14 13 13 15 17 17 15 13 11 8 5 4 5 4 4 4 4 4 4 4 4 4 3 4 3 3 4 3 3 4 4 3 3 3 3 3 3 3 3 3 3 4 4 4 5 6 8
71 72 70 68 68 68 69 71 71 69 66 62 57 53 49 46 44 43 43 42 41 40 39 38 37 35 32 29 26 25 23 21 20 17 15 14 14 14 14 13 12 13 16 18 17 14 12 10 6 5 5 4 4 5 4 4 4 4 4 4 3 4 3 3 3 3 3 3 4 4 3 3 3 3 3 3 3 3 3 3 3 4 4 4 5
72 73 72 71 73 74 76 79 80 77 74 68 60 53 47 44 42 41 42 40 38 37 35 34 32 30 28 25 23 22 21 20 19 17 15 14 14 14 14 14 12 12 15 17 18 16 14 12 9 5 4 5 4 5 5 4 4 4 4 4 4 3 3 4 3 3 4 3 3 4 4 3 4 3 3 3 3 3 3 3 3 3 3 4 4
72 74 75 75 78 80 83 87 85 82 79 74 65 55 48 43 40 38 39 38 35 33 31 29 27 25 23 22 20 19 19 18 17 16 15 15 14 14 14 14 13 12 14 16 18 18 15 13 11 7 5 5 4 4 5 5 4 4 4 4 4 4 3 3 4 3 3 3 3 3 4 4 4 3 4 3 3 3 3 3 3 3 3 4 4
77 77 77 79 82 85 87 90 87 83 80 77 71 61 50 42 37 34 35 35 32 30 27 25 22 21 20 18 18 18 17 17 17 15 15 14 14 14 14 14 13 12 12 15 17 18 17 15 13 10 6 5 4 5 5 5 5 4 4 4 4 4 4 3 3 4 3 3 3 3 3 4 4 4 4 4 4 3 3 3 3 3 4 4 4
83 82 81 82 85 87 89 90 87 82 81 80 75 63 50 39 33 30 32 31 28 26 23 21 19 17 17 16 16 17 16 16 16 15 14 14 15 14 14 14 14 12 12 14 16 17 17 16 15 12 8 5 4 5 4 5 5 4 4 4 4 4 4 4 3 3 3 4 3 3 4 3 4 4 4 4 4 4 3 3 3 3 4 4 4
87 85 85 85 86 87 86 87 87 86 85 81 72 60 47 37 29 27 28 27 23 21 19 17 16 15 15 15 15 16 16 16 16 15 15 15 15 15 14 14 15 13 12 13 15 17 17 17 16 14 11 7 5 5 4 4 5 5 4 4 4 4 4 4 4 3 3 3 3 4 3 3 4 4 4 4 4 4 4 3 3 3 3 3 4
89 86 86 86 84 81 80 85 90 89 85 78 67 56 45 34 27 24 24 21 18 17 15 14 13 13 13 13 14 15 16 16 16 15 15 15 15 15 14 15 15 14 13 12 13 15 17 17 17 15 13 9 6 5 5 4 4 5 5 4 4 5 4 4 4 4 3 3 3 4 3 4 4 4 4 4 4 4 4 4 4 3 3 3 3
89 86 84 81 76 75 79 85 87 83 80 74 63 53 43 32 24 21 19 17 14 13 13 12 11 12 12 12 13 14 15 16 16 15 15 15 15 15 15 15 16 15 13 13 13 14 15 17 18 17 15 12 8 5 4 5 4 5 5 5 4 4 4 5 4 4 4 3 3 3 3 4 4 4 4 4 4 4 4 4 4 4 4 3 3
89 83 79 75 72 77 82 84 81 77 75 71 62 53 42 30 22 18 15 13 11 11 11 11 10 11 11 11 12 13 14 15 15 15 15 15 15 15 15 15 16 16 15 13 13 13 14 15 17 18 16 14 11 7 5 5 5 5 5 5 5 4 4 5 5 4 4 4 4 3 3 3 3 4 4 4 4 4 3 4 4 4 4 4 3
88 80 76 75 77 83 85 83 80 77 76 71 61 51 39 27 20 15 12 10 10 10 10 10 10 10 10 10 11 12 13 14 15 15 15 15 15 15 15 15 16 17 16 14 14 13 13 14 16 18 18 16 13 10 6 5 5 5 5 5 5 5 4 4 4 5 4 4 4 4 3 3 3 3 4 3 4 4 4 4 4 4 4 4 4
85 77 76 80 84 88 88 84 82 80 77 69 58 46 34 24 17 12 10 9 9 10 10 9 9 10 10 10 10 11 12 13 14 15 15 15 15 15 14 15 16 17 17 15 14 13 13 13 14 17 19 18 15 12 8 5 5 5 5 5 5 5 5 4 4 4 5 4 4 4 4 3 3 3 3 3 3 3 4 4 4 4 4 4 4
78 73 76 81 85 87 89 87 85 83 76 64 52 41 29 20 14 11 9 9 9 10 9 9 9 9 9 9 10 10 11 13 14 14 15 15 15 15 14 14 16 18 18 16 15 14 13 12 12 14 18 19 18 15 11 7 5 5 5 5 5 5 5 5 4 4 5 5 4 4 4 4 4 4 3 3 4 3 3 3 4 4 4 4 4
74 73 76 80 84 90 93 92 89 83 72 57 45 36 25 16 12 9 8 9 9 9 9 9 9 9 9 9 10 10 11 12 13 14 15 15 14 14 14 14 16 18 18 17 16 15 14 13 12 12 15 19 19 17 15 10 6 5 5 5 5 5 5 5 5 5 4 5 5 5 5 4 4 4 4 3 3 3 3 3 3 3 4 4 4
76 75 78 82 89 95 97 95 89 77 61 48 40 31 21 14 10 8 8 9 9 9 9 9 9 9 9 9 9 10 10 11 13 14 14 14 14 14 14 14 16 18 18 17 17 16 14 13 13 12 13 17 20 20 17 14 9 5 5 5 5 5 5 5 5 5 5 5 5 5 5 5 4 4 4 4 4 4 3 3 3 3 4 4 4
79 78 79 85 92 96 96 92 81 64 49 41 35 27 18 12 9 8 8 9 9 9 8 9 9 9 9 9 9 10 10 11 12 13 14 14 14 14 14 14 15 18 19 18 17 17 16 14 13 13 12 14 18 21 20 17 12 7 5 5 5 5 6 6 5 5 5 5 5 5 5 5 5 5 4 4 4 4 4 4 4 3 3 4 4
76 76 78 85 92 94 91 83 67 51 40 35 31 24 16 11 9 8 9 9 8 8 8 8 8 8 9 9 9 10 10 10 12 13 13 14 14 14 14 14 15 18 19 18 18 17 17 15 14 13 12 12 15 19 22 20 15 10 6 5 5 5 5 6 5 6 6 5 5 5 5 5 5 5 5 4 4 4 4 4 4 4 3 4 4
73 76 80 87 92 92 86 73 54 40 33 30 27 21 14 10 8 8 9 9 8 8 8 8 8 8 9 9 9 9 10 10 11 12 13 13 13 14 14 14 16 18 19 19 18 18 18 17 15 14 13 12 13 17 21 23 19 13 8 6 5 5 5 6 6 5 5 6 6 6 5 5 5 5 5 5 5 4 4 4 4 4 4 4 4
78 83 86 89 91 88 78 61 43 32 28 25 23 17 12 9 9 8 9 9 7 8 8 7 8 9 9 9 10 10 10 10 11 12 12 13 13 13 14 14 16 19 20 20 19 19 19 18 17 15 13 12 12 14 18 23 23 18 11 7 6 6 5 6 6 6 6 5 6 6 6 5 5 5 5 5 5 5 4 4 4 4 4 4 4
86 88 88 87 85 78 65 48 33 26 24 22 18 14 10 9 9 9 9 8 7 7 7 8 8 9 9 10 10 10 10 10 11 11 12 13 13 13 13 14 16 19 21 21 20 19 20 20 18 17 14 13 12 13 15 20 23 22 15 9 6 6 6 6 6 6 6 6 6 6 6 6 6 5 5 5 6 5 5 4 4 4 4 4 4
88 87 83 78 73 64 51 37 26 22 21 19 15 12 9 9 9 9 8 7 7 7 7 8 9 9 10 10 10 10 10 10 10 11 12 13 13 13 13 14 17 20 22 21 20 20 20 20 20 18 16 14 13 13 13 17 22 24 20 12 7 6 6 6 6 6 6 6 6 6 7 7 6 6 6 6 6 6 6 5 4 4 4 4 4
83 79 73 66 59 50 38 27 21 20 18 16 13 10 9 9 9 9 8 7 7 7 7 8 9 10 10 10 10 10 10 10 11 11 12 13 13 13 14 15 18 21 22 22 21 21 21 20 20 19 18 15 14 13 13 15 19 24 23 17 10 7 6 6 6 6 6 6 6 6 6 7 7 6 6 6 6 6 7 6 5 4 4 4 5
75 69 62 54 46 37 28 20 17 17 16 14 11 9 9 9 9 9 8 7 7 7 8 9 9 10 10 10 10 10 10 11 11 11 12 13 13 13 14 16 19 22 23 23 22 21 21 21 20 20 19 17 16 14 13 14 17 21 25 22 14 8 7 7 6 6 6 6 7 7 6 7 7 7 6 6 6 6 7 7 7 6 5 4 4
65 57 48 41 34 27 20 15 15 15 14 12 10 9 9 9 9 8 8 7 7 7 8 9 9 10 10 11 11 11 11 11 11 11 12 13 14 14 15 17 20 22 23 23 22 22 22 22 21 21 20 19 18 16 14 14 16 19 23 24 18 11 8 7 7 6 6 6 7 7 7 7 7 8 7 7 6 6 7 7 8 7 6 5 4
51 43 35 29 24 19 15 13 13 13 12 10 10 9 9 9 9 8 7 7 7 7 8 9 9 9 10 11 11 11 11 11 11 12 12 13 14 15 16 18 21 22 22 22 22 21 22 22 22 22 21 20 19 18 17 16 16 18 22 24 22 14 9 8 8 7 7 7 7 7 7 7 7 7 8 8 7 6 6 7 8 8 8 7 5
38 32 26 20 17 15 13 13 12 11 10 10 10 9 9 9 9 8 7 7 7 8 8 9 9 9 10 11 12 12 12 12 12 12 12 13 14 15 17 19 21 22 22 22 21 21 22 22 22 22 22 21 21 20 19 17 17 19 22 25 25 19 11 8 8 8 8 7 7 7 7 8 7 7 8 8 8 7 6 7 8 8 9 8 7
28 22 18 14 13 12 12 12 10 10 9 9 9 9 9 8 8 8 7 7 7 8 8 9 9 9 10 11 12 12 13 12 13 13 13 14 15 16 18 20 21 22 22 21 21 21 22 22 22 21 21 22 22 22 21 19 18 20 22 25 26 23 15 9 8 10 9 8 7 7 7 8 8 7 8 8 8 8 8 7 7 8 9 9 9
19 15 12 11 11 11 11 10 9 9 9 8 9 10 9 8 8 7 7 7 7 8 8 9 9 9 9 10 11 12 13 13 13 14 14 15 16 17 19 20 21 22 21 21 21 21 22 22 22 21 21 22 23 24 23 21 20 21 24 26 27 26 19 11 8 10 11 10 9 8 7 7 8 8 7 8 8 9 9 8 7 8 8 9 10
12 10 9 9 9 9 9 8 8 8 8 8 9 9 9 8 7 7 7 7 7 8 8 9 9 9 9 10 11 12 13 14 14 15 16 16 17 18 20 21 21 21 21 20 20 21 22 22 23 22 22 23 25 26 26 23 22 24 27 29 29 28 23 14 9 9 11 11 11 9 8 7 8 8 8 8 8 8 9 9 8 8 8 9 10
Wind_Speed
61 59 58 57 59 62 64 67 71 73 77 80 82 82 81 80 80 80 81 81 82 81 81 79 78 76 74 73 70 67 61 53 48 46 46 47 49 50 51 52 54 59 63 65 69 73 78 82 86 91 97 103 109 114 120 124 128 131 134 136 138 139 140 141 142 142 142 145 150 156 159 158 157 156 156 156 151 149 151 152 151 150 147 144 142
60 58 57 57 59 62 65 69 72 75 77 80 81 81 81 80 80 80 81 81 81 81 81 79 77 75 74 72 70 67 63 56 50 45 42 44 46 48 49 50 51 54 59 62 65 69 74 79 83 87 92 97 103 108 114 120 124 128 131 134 137 138 140 140 141 143 143 144 147 153 158 161 160 159 158 157 154 152 153 155 154 152 150 148 147
60 57 56 58 60 62 66 70 73 76 78 80 81 80 80 80 80 80 80 81 81 81 81 79 77 75 74 72 69 67 64 59 53 48 42 40 43 45 47 49 49 51 54 59 62 65 70 75 80 84 88 93 98 103 108 114 119 124 127 131 134 137 139 140 141 143 144 145 146 150 156 159 161 161 160 158 156 155 156 156 156 155 153 151 151
58 57 57 58 61 64 67 71 75 78 80 81 80 80 80 80 80 80 81 81 81 82 81 80 78 76 74 71 69 66 64 61 57 52 45 41 39 42 44 46 48 49 51 54 58 62 66 70 76 81 85 89 94 98 103 108 113 118 123 127 131 134 137 140 141 143 144 146 148 150 153 157 160 161 161 161 159 158 158 158 158 157 156 154 154
57 57 58 60 63 66 69 73 76 79 81 81 81 80 81 81 81 81 81 81 82 82 82 81 79 77 75 72 69 65 63 61 59 55 50 44 39 39 41 43 45 47 48 50 54 58 62 66 71 77 82 86 91 95 99 103 108 113 118 123 128 132 135 138 141 142 144 146 148 151 153 155 157 158 160 162 161 161 161 160 160 159 158 157 157
56 57 59 62 65 68 71 74 77 80 81 82 82 82 81 82 81 81 81 82 82 82 82 81 80 78 76 73 70 66 63 60 58 56 53 48 43 39 38 40 42 45 46 48 50 53 58 62 66 72 78 83 87 92 95 99 103 108 113 118 124 129 133 136 139 142 143 145 147 150 153 154 155 156 157 160 162 164 164 163 162 161 160 159 159
55 57 60 64 67 70 73 76 78 80 81 82 83 83 82 82 82 82 82 82 82 82 82 81 81 79 77 74 72 68 64 61 58 56 54 51 47 42 39 38 40 42 44 46 47 50 54 58 62 67 73 78 83 88 92 96 100 104 108 113 118 124 129 134 138 141 143 145 147 149 152 154 155 156 156 157 160 163 165 166 166 164 162 161 160
55 58 62 65 69 72 75 77 79 80 81 82 83 84 83 82 82 83 83 82 83 83 83 83 82 80 78 76 73 69 65 62 59 56 54 51 49 46 42 39 39 40 42 43 45 47 50 54 59 63 68 73 79 83 88 93 97 100 104 108 113 118 123 129 135 139 142 144 146 148 151 153 155 156 157 157 158 161 164 166 168 167 166 165 163
56 60 64 68 71 74 77 78 80 81 82 83 84 84 84 83 83 83 84 83 83 84 84 84 83 82 80 77 74 71 66 62 59 57 54 52 49 47 45 41 38 39 40 42 43 44 47 50 54 59 64 68 74 79 84 88 93 97 100 104 108 113 118 123 129 135 140 143 145 148 150 152 154 155 157 157 158 159 162 164 167 168 168 168 166
59 63 67 70 73 75 77 79 80 81 82 83 84 85 84 84 84 84 85 85 85 85 85 85 84 84 82 79 76 73 68 63 60 57 55 52 50 48 46 44 41 38 39 40 42 42 44 47 50 55 60 64 69 74 79 83 88 92 97 100 104 108 113 118 123 130 136 140 143 146 149 151 153 154 156 158 158 159 160 162 164 166 168 169 169
62 66 69 72 74 76 78 79 81 82 82 83 85 86 86 86 85 85 86 87 87 87 86 86 86 85 84 81 78 75 70 65 60 58 55 53 51 48 46 45 44 40 38 38 40 42 43 44 46 50 55 60 65 69 74 78 83 87 92 96 100 104 108 113 118 124 130 136 140 144 147 150 152 154 155 157 158 159 160 162 163 163 165 167 168
65 67 70 72 74 76 78 80 82 83 83 84 85 87 88 88 87 87 87 88 89 88 88 88 87 87 85 84 80 77 73 68 62 58 55 53 51 48 45 44 44 43 40 38 38 39 42 43 44 47 50 55 60 65 69 74 78 83 87 92 96 100 104 108 113 118 124 130 136 141 145 148 151 154 155 157 158 159 160 161 162 163 163 165 166
66 68 70 73 76 78 80 82 83 84 85 86 86 87 89 90 90 89 89 90 90 90 90 90 89 88 87 85 82 79 75 71 65 59 56 53 51 49 46 43 42 42 41 40 39 38 39 41 44 45 47 51 55 60 65 69 74 78 83 87 91 96 100 104 108 113 118 123 129 135 141 145 148 152 155 157 158 159 160 161 163 163 163 163 165
68 70 71 74 77 80 82 84 85 86 87 87 88 88 89 91 92 92 91 92 92 93 93 92 91 90 88 85 83 80 77 73 68 62 57 54 51 49 47 44 42 41 40 39 39 39 39 39 42 44 45 48 51 56 61 65 70 74 79 83 87 91 95 100 105 109 113 118 123 128 135 140 145 149 153 156 158 159 160 161 162 164 163 163 164
69 71 73 75 78 81 84 86 87 88 89 89 89 89 90 92 94 95 94 94 94 95 94 94 92 90 88 86 84 81 78 74 71 65 59 55 53 50 48 46 43 41 41 40 38 38 38 39 40 42 44 46 49 52 56 61 65 70 74 79 83 87 90 95 100 105 109 113 118 123 128 134 140 145 150 154 157 159 160 161 162 163 164 164 164
72 74 75 77 80 82 84 87 89 90 90 90 91 92 93 94 95 97 97 97 96 96 96 95 93 91 89 86 84 82 79 75 72 67 61 56 54 51 49 47 45 42 41 40 39 37 37 37 38 39 42 44 47 49 53 57 61 65 69 74 78 83 87 90 95 100 105 110 114 118 123 128 133 139 145 150 155 158 160 162 162 163 164 164 164
75 77 79 81 82 84 86 88 90 91 91 92 93 94 95 96 97 98 99 100 99 98 97 95 94 91 89 87 84 82 80 76 72 69 64 58 55 52 50 48 46 44 41 40 40 39 37 37 37 37 39 42 45 47 50 53 57 61 65 69 73 78 83 87 91 94 99 105 110 115 119 123 127 133 139 145 151 155 158 161 162 163 163 164 164
78 81 83 85 86 87 88 90 91 92 93 94 95 96 97 99 100 101 101 101 101 100 98 96 94 92 89 87 85 82 80 77 73 69 65 60 56 53 50 49 47 45 43 40 39 39 39 37 36 36 37 39 42 45 48 51 54 57 61 65 69 73 78 83 87 90 94 98 104 110 115 119 123 127 133 139 145 151 155 158 161 162 163 164 165
82 85 87 89 90 91 91 92 93 94 95 96 97 98 99 100 102 102 102 102 101 100 99 97 94 91 89 86 84 82 80 77 74 70 66 61 57 53 51 49 48 46 45 42 39 38 38 38 37 37 36 37 38 41 45 48 51 54 58 62 65 69 73 77 82 87 90 94 98 103 109 114 119 123 127 132 138 144 149 154 157 160 162 164 165
85 88 90 92 93 94 94 95 95 96 97 98 100 100 101 102 102 103 102 102 101 100 99 97 95 91 88 86 83 81 79 77 74 70 66 61 58 55 51 49 48 47 46 44 41 38 37 37 37 37 36 36 37 38 41 45 49 51 54 58 62 65 69 73 78 82 86 90 94 98 103 108 114 119 123 127 132 137 142 148 152 156 160 162 164
87 89 92 94 95 96 97 98 99 99 100 101 102 103 103 102 102 102 102 101 100 99 98 97 95 91 88 85 82 80 78 76 74 70 66 62 58 55 53 49 47 47 46 45 43 40 38 36 36 37 37 36 36 36 38 41 45 49 52 55 59 62 65 69 73 77 82 86 90 94 98 102 108 113 118 123 127 131 136 141 146 150 155 159 161
88 90 93 95 96 98 100 101 102 103 104 104 105 105 104 103 102 102 101 100 99 98 97 95 93 90 87 83 81 79 77 75 73 70 66 62 58 55 53 50 47 46 46 45 44 41 39 37 35 35 36 36 36 36 37 38 41 45 49 53 56 59 62 65 69 73 77 81 86 90 94 98 102 107 112 117 122 127 131 135 140 144 149 154 158
91 92 94 96 98 100 101 103 105 106 107 107 106 106 105 103 102 101 100 99 98 97 95 93 91 88 85 82 79 77 76 74 72 69 66 62 58 55 53 51 48 45 45 45 45 43 40 38 36 35 35 35 35 36 36 37 38 41 45 49 53 57 60 62 65 69 73 77 81 86 90 94 97 101 106 111 117 122 126 130 134 139 144 148 153
93 95 96 98 100 101 103 105 107 108 109 109 108 107 105 104 102 101 101 99 98 96 94 91 89 86 83 81 78 76 74 73 71 69 65 61 58 55 53 51 48 45 44 44 44 44 41 39 37 35 34 34 35 35 36 36 37 39 42 45 49 53 57 60 62 65 69 73 77 81 85 89 93 97 101 106 111 116 121 125 130 134 138 142 147
95 97 98 100 101 103 105 107 108 110 111 111 110 108 106 105 103 102 101 99 97 95 92 89 86 84 81 79 76 74 72 71 70 68 65 61 57 55 53 51 48 45 44 43 43 44 43 40 38 37 35 34 33 34 35 36 36 37 39 42 45 49 53 57 60 62 65 68 73 77 81 85 89 93 97 101 105 109 114 119 124 128 133 137 141
97 99 100 101 103 105 106 108 110 111 112 113 112 111 108 106 103 101 100 99 96 94 91 88 85 82 79 76 74 72 71 69 68 67 64 60 57 54 52 51 49 46 44 43 42 43 43 42 39 37 36 35 33 33 34 35 35 36 37 40 42 46 49 53 57 60 62 65 68 72 76 80 84 88 92 95 99 103 107 112 116 121 126 131 135
100 101 102 103 105 106 108 109 111 112 113 114 114 113 111 107 103 100 99 98 95 92 89 86 83 80 77 75 73 71 69 68 67 66 63 60 57 54 52 51 49 46 44 43 42 42 42 42 41 38 36 36 34 32 32 33 34 35 36 38 40 42 46 49 53 56 59 62 64 68 71 75 79 83 87 90 93 97 101 105 110 114 119 123 128
102 103 105 106 107 108 109 110 112 113 114 115 116 115 112 107 102 99 98 97 94 91 88 85 82 79 76 73 71 70 68 67 66 65 63 60 57 54 52 50 49 47 44 42 42 41 41 41 41 40 37 36 35 34 32 32 33 34 35 36 38 40 43 46 50 53 55 59 61 64 67 71 75 79 82 85 88 91 95 99 104 108 113 117 121
104 105 107 108 108 109 110 111 113 115 115 117 117 115 113 108 102 99 97 95 92 89 86 83 80 78 75 72 70 68 67 66 65 63 62 59 57 54 52 50 49 47 45 43 42 41 40 40 41 40 38 36 36 35 33 31 32 33 34 34 36 39 41 43 47 50 52 55 58 60 63 67 70 74 77 81 84 87 90 93 98 102 107 111 115
105 107 108 109 110 110 111 112 114 115 117 117 117 116 114 109 103 98 96 93 89 87 85 82 79 77 74 71 68 67 65 64 63 62 60 58 56 54 52 50 49 47 46 44 42 41 40 39 39 40 39 37 36 35 35 33 31 31 33 34 33 36 39 41 43 46 50 52 54 57 60 63 66 70 73 76 79 82 85 88 92 95 100 104 109
107 109 110 110 111 112 113 114 115 116 117 118 118 117 114 109 103 99 94 90 87 85 84 82 79 76 73 70 67 65 64 63 62 61 59 57 55 54 52 50 48 47 46 44 43 41 40 39 38 39 39 38 36 35 35 34 32 31 32 33 33 33 36 39 41 43 46 49 51 53 56 59 62 66 69 72 75 78 80 83 86 89 93 97 102
109 110 111 112 113 114 115 116 117 118 119 119 119 118 115 109 104 99 93 89 86 84 83 82 78 75 72 70 67 64 63 62 61 59 57 55 54 53 52 50 48 47 46 45 43 42 41 39 38 38 39 39 37 36 34 34 33 32 31 32 33 33 33 36 39 41 43 45 48 51 53 55 58 62 65 68 71 74 76 79 81 84 87 91 95
111 113 114 115 116 117 118 119 119 120 120 120 120 118 114 109 103 98 92 88 85 84 84 81 77 74 72 69 66 63 62 61 60 58 57 55 53 52 51 50 48 47 46 45 44 42 41 39 38 37 38 39 38 37 35 33 32 33 32 32 33 33 33 33 35 39 41 43 45 48 50 52 54 57 61 64 67 70 72 75 77 79 82 85 89
113 115 116 118 119 119 120 121 121 122 122 121 120 117 113 108 102 96 92 89 86 85 84 81 77 74 71 68 65 62 60 59 58 57 55 54 52 51 50 49 48 47 46 45 44 43 41 40 38 37 37 38 38 37 36 34 32 31 32 33 33 33 33 33 33 35 38 41 43 45 47 49 51 53 56 60 63 66 68 71 73 75 78 80 83
115 117 118 119 120 121 121 122 123 123 123 122 119 116 111 106 100 95 92 89 87 85 83 79 76 73 70 67 64 61 59 58 57 56 54 53 51 50 50 49 47 47 46 45 44 43 42 40 39 37 36 37 38 38 37 36 33 31 31 32 33 33 32 33 33 33 35 38 40 43 44 46 48 50 53 56 59 62 64 67 69 71 73 76 78
117 118 119 120 121 122 123 123 123 124 123 121 118 114 110 104 99 95 92 90 87 85 81 78 75 72 70 67 64 61 59 57 56 55 54 52 51 50 49 48 47 46 46 45 44 44 43 41 39 37 36 36 37 38 37 36 35 33 30 30 33 33 32 33 33 33 33 35 38 40 42 44 46 47 49 52 54 57 60 62 64 67 69 71 73
119 120 121 122 122 123 123 124 124 123 122 119 116 113 108 103 98 94 92 90 87 84 80 77 74 71 69 66 63 61 58 56 55 54 53 52 51 50 49 48 46 46 46 45 44 44 43 42 40 38 36 35 35 37 37 36 36 35 32 29 30 33 33 32 33 33 33 33 35 38 40 42 44 45 47 49 51 53 56 58 60 62 64 66 69
121 121 122 122 123 124 124 124 123 122 120 117 114 111 107 102 98 94 91 90 87 82 78 75 73 71 68 66 63 60 58 56 54 53 52 52 50 49 49 47 46 45 45 45 44 44 44 43 41 40 38 35 34 35 37 37 35 35 34 31 29 31 33 33 32 33 33 33 34 35 37 40 42 43 44 46 48 50 52 54 56 58 60 62 65
121 122 123 123 124 124 124 124 123 120 117 114 112 110 106 101 97 94 91 89 85 80 76 74 71 69 67 65 62 60 58 55 53 52 51 51 50 49 49 47 45 44 44 44 44 43 44 43 42 40 39 36 34 33 35 36 36 35 34 33 30 30 31 33 33 32 32 32 33 34 35 37 40 41 42 43 45 47 48 50 52 55 56 59 62
122 123 124 124 125 125 125 124 122 118 114 111 109 107 104 100 96 93 90 88 83 78 75 72 70 68 66 63 62 60 57 55 53 51 51 50 49 49 48 47 45 44 44 44 44 43 43 44 43 42 39 37 35 33 32 35 36 35 34 33 32 30 30 32 33 33 32 32 32 33 33 35 37 39 41 42 43 45 46 47 49 51 53 56 59
125 125 125 125 125 125 125 123 120 116 112 108 106 104 101 98 95 92 89 86 81 77 74 71 68 66 64 62 61 59 57 55 53 51 50 50 49 48 48 47 45 44 43 43 43 43 43 43 44 43 41 39 36 33 31 32 34 35 34 33 32 31 30 31 32 33 32 31 31 32 33 34 35 37 39 40 41 42 44 45 46 48 50 53 55
126 126 126 126 125 125 123 121 118 113 109 106 103 101 99 96 93 90 87 83 79 75 72 69 66 64 62 61 60 58 56 55 53 52 50 49 49 48 47 46 45 44 43 43 42 42 42 42 43 44 43 41 38 35 32 30 31 33 34 33 32 31 30 30 31 32 32 31 31 31 32 32 34 36 37 39 39 41 42 43 44 46 48 50 52
127 127 127 126 125 124 122 119 115 111 107 103 101 98 96 94 92 89 85 81 77 73 70 66 64 62 60 59 58 57 56 55 54 52 50 49 48 48 47 46 45 44 43 43 42 42 42 42 42 43 43 42 40 37 34 31 30 31 33 33 32 31 30 30 29 31 32 31 30 31 31 31 32 34 35 37 38 39 40 42 43 44 45 47 49
128 127 127 126 124 122 119 116 111 107 104 100 98 96 94 92 90 87 83 79 76 72 68 65 62 60 59 58 57 56 55 54 53 52 50 49 48 47 46 45 44 43 43 43 42 42 42 41 41 42 43 42 41 38 36 33 31 30 31 32 32 32 31 30 29 29 31 31 30 30 31 31 31 32 33 35 36 37 38 40 42 43 43 44 46
129 128 127 125 123 120 116 112 107 103 100 97 96 94 92 90 88 85 81 78 74 70 66 63 61 59 58 57 56 55 55 54 53 52 50 48 47 47 46 45 44 43 42 42 42 42 42 42 41 41 42 42 42 40 37 34 32 30 29 30 31 31 31 30 29 28 29 30 30 29 30 30 31 31 32 33 34 36 37 38 40 41 42 43 43
129 127 125 123 120 117 113 107 103 99 97 95 94 93 91 89 86 83 79 76 72 68 65 62 60 58 57 56 55 54 54 53 52 51 50 48 47 46 45 44 44 43 42 42 42 42 42 42 41 41 41 42 42 41 39 36 34 31 29 28 28 29 30 30 29 28 28 29 29 29 29 29 30 30 31 32 33 34 35 36 38 39 40 41 42
128 126 124 121 118 114 109 104 99 96 94 92 92 92 90 87 84 81 78 74 71 68 64 62 60 58 56 55 54 53 52 52 51 51 49 48 46 45 44 43 43 43 42 42 42 42 42 42 41 41 41 41 41 41 39 38 36 33 31 28 27 28 28 29 29 28 27 27 28 28 28 28 29 29 30 31 32 33 34 35 36 37 38 39 41
127 125 122 118 114 110 105 101 97 94 92 91 90 91 89 85 82 80 76 72 69 66 64 61 59 57 55 54 53 52 51 51 50 50 49 48 46 45 44 43 42 42 42 42 42 42 42 42 41 41 40 41 41 40 39 38 36 35 33 30 28 27 27 27 28 28 27 27 27 27 27 28 28 28 29 30 31 32 33 33 34 35 36 38 39
125 122 119 115 111 106 102 99 96 93 91 89 88 89 88 84 80 78 74 70 67 65 63 60 58 55 53 52 51 51 50 49 49 49 48 47 46 45 44 43 42 42 42 42 43 42 42 42 42 41 40 40 40 40 39 38 37 35 34 32 29 27 26 26 26 26 27 27 27 27 27 27 27 28 28 28 29 30 32 32 33 34 35 36 37
123 119 114 110 106 103 99 96 95 93 91 88 86 86 86 82 77 75 72 69 65 63 61 59 56 54 52 51 50 49 49 48 48 48 47 47 46 45 44 43 42 41 42 42 42 42 42 42 42 41 40 40 39 39 39 38 37 36 35 33 31 28 26 25 25 25 25 26 26 26 26 26 27 27 27 28 28 29 30 31 32 33 34 35 36
120 115 110 105 102 99 96 94 93 92 90 87 84 84 84 80 75 72 70 67 63 61 58 57 55 53 52 51 50 49 48 48 47 46 46 46 45 45 44 44 42 42 42 42 42 42 42 42 42 41 41 40 39 38 38 37 37 36 35 34 33 30 27 25 24 24 24 24 25 26 26 26 26 26 27 27 27 28 28 30 31 32 32 33 34
Wind_Direction
320 320 320 321 322 322 322 323 324 325 326 328 330 331 332 333 333 334 334 335 335 335 335 336 336 336 335 332 329 325 322 319 315 310 303 295 286 278 272 266 261 258 256 253 250 248 246 244 242 239 238 236 236 235 235 234 233 233 232 231 231 231 231 231 231 231 231 231 232 233 234 235 235 235 235 235 234 233 234 235 236 236 237 237 236
320 321 322 323 323 323 323 324 325 325 327 329 331 332 333 334 334 335 336 336 336 336 336 337 337 338 337 336 332 328 324 322 319 314 308 300 291 283 276 271 265 260 257 255 252 249 247 245 243 241 239 237 236 235 235 234 234 233 232 231 231 230 231 231 230 230 230 230 231 232 233 234 234 235 235 235 235 234 234 234 235 236 236 237 237
321 323 324 324 324 324 324 325 325 326 328 330 332 333 334 335 335 336 337 337 337 337 337 338 339 339 339 339 336 332 327 325 322 318 313 305 296 287 280 275 269 263 259 256 254 251 247 245 244 242 240 239 237 236 235 234 234 233 232 232 231 230 230 230 230 230 229 229 230 231 232 233 233 234 235 235 235 235 235 234 235 235 236 236 237
323 325 325 325 325 325 325 325 326 327 329 331 333 334 335 336 336 337 338 338 338 338 338 338 340 341 341 341 339 336 332 328 325 322 318 311 302 292 284 279 274 267 261 257 255 252 249 246 244 243 241 239 238 237 235 235 234 233 232 232 231 231 230 229 229 229 229 229 229 230 231 232 233 233 234 235 235 235 235 235 235 235 235 235 236
325 326 326 325 325 325 326 326 327 328 330 332 333 335 336 337 337 338 339 339 339 339 339 339 340 342 342 342 341 339 336 332 328 325 322 317 309 299 289 282 278 272 265 259 256 253 251 247 245 243 242 240 239 238 236 235 234 233 232 231 231 231 230 230 229 228 229 229 229 229 230 231 232 233 233 234 235 235 236 236 236 236 235 235 235
326 327 326 325 325 326 326 327 328 329 331 332 334 335 337 337 338 338 339 340 340 340 340 340 341 342 343 343 342 341 339 335 331 328 325 321 316 307 297 287 281 276 270 264 258 254 252 249 246 244 243 241 239 238 237 236 235 234 233 232 231 230 230 229 229 229 228 228 229 229 229 230 231 232 233 233 234 235 235 236 236 236 236 236 235
327 327 326 325 326 326 327 328 329 330 332 333 334 336 337 338 338 339 340 340 341 341 341 341 342 343 344 344 343 343 341 338 334 331 328 324 320 315 306 295 286 279 273 267 261 256 252 250 247 244 243 242 240 239 238 236 235 234 233 232 231 230 230 229 229 229 228 228 228 229 230 230 230 231 232 232 233 234 234 235 236 237 237 237 236
327 326 325 326 326 327 328 329 330 332 333 334 335 336 336 338 339 340 340 341 341 341 342 342 342 343 344 344 344 343 342 340 337 333 329 327 323 319 313 303 293 284 277 270 264 258 254 251 248 246 243 242 241 240 238 237 236 235 234 233 232 231 230 229 228 228 228 228 227 228 229 230 230 231 231 231 232 233 234 234 235 236 237 237 237
326 326 326 327 328 328 329 330 331 332 334 334 335 335 336 338 339 340 341 341 342 342 343 343 343 343 344 344 344 344 343 342 339 335 331 328 325 322 317 310 301 290 282 275 268 261 256 253 250 247 245 243 242 241 240 238 237 235 234 233 233 231 230 230 229 228 228 228 228 228 228 229 230 231 231 231 231 232 233 233 234 235 236 237 237
327 327 328 329 329 329 330 331 332 333 334 334 335 335 336 338 339 341 341 342 342 343 343 343 344 344 344 344 344 344 343 343 341 338 334 330 327 324 320 315 307 297 288 281 274 266 259 255 251 249 246 244 243 241 241 240 238 237 235 234 233 232 231 230 230 229 228 227 227 227 228 228 230 230 231 231 231 231 232 233 233 234 235 236 237
328 329 329 329 329 329 330 331 332 333 334 334 335 336 337 338 340 341 342 342 343 343 344 344 344 344 344 344 344 344 343 343 342 339 336 332 328 325 322 318 312 304 294 285 279 273 266 259 254 250 248 246 244 243 242 241 240 239 237 235 233 233 232 231 230 229 229 228 227 227 227 228 229 230 231 232 232 231 232 232 233 233 234 235 236
330 330 330 329 329 329 330 331 332 333 334 334 335 336 337 338 340 341 342 342 343 343 344 344 344 344 343 343 343 343 343 343 342 340 337 334 330 326 324 320 315 308 301 291 283 276 271 266 259 253 250 248 246 244 243 242 241 240 239 237 235 233 232 232 231 230 230 229 228 227 227 227 228 229 230 231 232 232 232 232 233 233 233 234 235
331 330 330 329 329 330 331 332 333 333 334 335 336 337 338 339 339 340 341 342 343 343 344 344 344 344 343 342 342 342 343 342 342 341 339 335 331 327 324 321 317 311 305 297 289 281 274 269 265 259 253 250 247 245 244 242 241 240 240 239 237 235 233 232 232 231 230 230 229 228 227 227 227 228 229 230 231 232 232 232 233 233 233 233 234
330 330 330 330 330 331 332 332 333 334 334 335 336 337 338 339 340 340 341 342 342 343 343 343 343 343 342 342 341 341 342 342 341 341 339 337 333 329 325 322 318 313 307 300 294 287 280 273 268 263 259 254 250 247 245 243 242 241 240 239 239 237 235 233 232 231 231 230 230 229 228 227 227 228 229 230 230 231 232 232 232 233 233 233 233
330 329 330 330 331 332 332 333 333 334 334 335 336 338 339 339 340 340 341 341 342 342 343 343 343 342 342 341 340 340 340 341 341 340 340 338 335 331 327 323 320 316 310 303 296 289 284 278 272 267 262 258 253 250 247 245 243 241 240 240 239 238 237 236 234 232 231 231 230 230 229 228 227 227 228 229 230 231 231 232 232 233 233 233 233
329 329 330 331 332 332 333 333 333 334 334 335 337 338 339 339 340 340 340 341 341 341 342 342 342 341 341 340 340 339 339 340 340 339 339 338 336 333 329 325 322 318 314 307 300 293 286 280 275 270 266 262 257 253 249 247 245 243 241 240 239 239 238 237 236 234 232 231 231 230 230 229 228 228 228 228 229 230 231 232 232 233 233 233 233
330 330 331 332 332 333 333 333 333 334 335 336 337 338 338 339 339 340 340 340 340 340 340 340 340 340 340 339 339 338 338 338 339 339 338 338 337 335 332 327 323 320 316 311 305 298 291 284 278 273 268 264 260 257 253 249 246 244 242 241 240 239 238 238 237 236 234 233 232 231 230 230 229 228 228 228 229 229 230 231 232 232 233 234 234
331 332 332 333 333 333 333 333 333 334 335 336 337 338 338 339 339 339 339 339 339 339 339 339 339 339 339 338 337 337 336 337 338 338 338 337 337 336 333 329 325 321 318 314 309 302 296 290 283 277 271 265 261 259 256 252 248 246 244 242 241 239 238 238 238 237 235 234 233 232 231 230 230 229 228 228 229 229 230 230 231 232 232 233 234
333 333 333 333 333 333 334 334 334 335 336 337 337 338 338 339 339 338 338 338 338 338 338 338 338 338 338 337 336 336 335 335 336 337 337 337 337 336 334 331 327 323 319 316 312 306 300 294 288 283 277 271 264 259 257 255 251 248 245 243 242 241 239 238 238 237 236 235 234 233 233 232 231 230 229 229 229 229 230 230 230 231 232 233 233
334 334 334 334 334 334 334 335 335 336 337 337 338 338 338 338 338 337 337 337 337 337 336 336 336 336 336 336 335 335 334 334 335 336 336 336 336 335 334 333 329 324 321 318 315 310 304 298 292 286 281 276 270 262 258 256 254 250 247 244 242 241 240 239 238 238 237 236 235 234 233 233 232 232 231 230 230 230 230 230 231 231 231 232 233
335 335 334 334 334 335 335 335 336 337 337 338 338 338 338 337 337 337 336 336 336 336 335 335 335 335 335 335 334 333 333 333 333 334 335 335 335 335 334 333 331 326 322 319 316 313 308 301 295 289 284 280 276 269 261 256 254 252 249 247 244 242 241 240 239 239 238 237 236 235 234 233 232 232 232 231 230 230 230 230 231 231 231 231 232
335 335 334 334 334 335 335 336 336 337 337 338 338 337 337 337 337 336 336 335 335 335 334 334 334 334 333 333 333 332 332 331 332 333 334 334 334 335 334 333 332 328 323 320 317 315 311 305 299 292 287 283 279 275 268 261 255 253 250 248 246 244 242 241 240 240 239 238 237 236 235 234 233 233 233 232 231 231 230 230 231 231 231 231 232
335 335 335 335 335 335 335 336 337 337 337 337 337 337 336 336 336 336 335 335 334 334 333 333 333 332 332 332 332 331 330 330 331 332 332 332 333 334 333 332 332 329 325 321 318 316 313 309 303 297 290 285 281 278 274 267 260 255 252 249 247 246 244 242 241 240 240 239 238 237 237 236 234 233 233 233 233 232 232 231 231 231 231 231 231
335 335 335 335 335 335 335 336 336 337 336 336 336 336 336 336 336 335 335 334 333 333 332 332 332 331 331 331 330 330 330 329 329 330 331 331 332 332 332 332 332 330 327 323 319 317 315 312 307 301 294 288 284 280 277 272 266 259 255 251 248 246 245 244 243 241 240 240 239 238 238 237 236 235 234 233 233 233 233 232 231 231 231 231 232
335 335 335 335 335 335 335 336 336 336 336 335 335 336 336 336 336 335 334 333 332 332 331 331 331 330 330 330 329 329 329 328 328 329 329 330 330 331 331 331 331 331 328 324 321 318 316 314 310 304 298 292 286 282 279 276 271 265 259 255 251 248 246 245 244 243 242 240 240 239 238 238 237 236 236 234 234 233 234 234 233 233 232 232 232
335 335 334 335 335 335 335 335 335 335 335 335 335 335 336 336 335 335 334 333 332 331 331 330 330 330 329 329 328 328 328 327 327 327 328 329 329 330 330 330 330 331 329 326 322 319 316 315 311 307 302 296 290 284 281 278 274 270 264 259 254 251 248 245 244 244 244 242 241 240 239 238 238 237 237 236 235 234 234 234 235 234 234 233 233
335 335 334 335 335 335 335 335 334 334 334 335 335 335 335 335 334 334 333 332 331 331 330 329 329 329 328 328 328 327 327 327 326 326 327 327 328 329 330 329 329 330 330 327 324 320 317 315 313 309 305 300 294 288 283 279 276 273 269 264 258 254 252 249 246 244 244 244 243 241 240 239 238 238 237 237 237 236 235 235 235 235 235 235 234
334 334 334 335 335 335 334 334 334 334 335 335 335 334 334 334 334 334 333 332 331 330 330 329 328 328 328 327 327 326 326 326 325 325 326 326 327 328 328 328 328 329 329 328 325 321 318 316 314 311 307 303 298 292 287 282 279 275 272 268 263 258 253 251 249 246 244 243 244 243 242 240 239 238 237 237 237 237 236 235 235 235 235 235 235
334 334 334 335 334 334 334 334 334 334 335 334 334 334 333 333 333 334 333 332 331 330 329 328 327 327 327 326 326 325 325 325 325 325 325 325 325 326 327 328 327 328 329 328 326 322 319 317 314 312 309 306 301 296 291 285 281 278 275 270 266 262 257 253 250 249 247 244 243 243 243 242 240 239 238 237 237 237 237 236 236 235 235 235 235
334 334 334 334 333 333 333 334 334 334 334 334 334 333 333 332 333 333 333 332 330 330 328 327 327 326 326 325 325 324 324 324 323 323 323 323 324 325 326 327 326 326 327 328 327 324 320 317 315 313 310 308 304 299 294 289 283 280 278 274 269 264 262 258 253 250 249 247 244 243 243 242 241 240 239 238 237 236 237 237 236 236 236 235 235
334 334 333 333 332 333 334 334 334 334 334 334 333 333 332 332 332 333 332 331 330 329 328 326 325 325 324 324 323 323 323 322 322 322 322 322 322 323 325 325 325 325 326 327 327 325 322 319 316 313 311 309 306 302 297 293 288 283 279 277 273 267 262 261 258 254 251 249 247 245 243 243 242 241 240 239 238 237 236 236 237 237 237 236 236
333 333 332 332 333 333 334 334 334 334 334 333 333 332 332 331 332 332 332 331 330 329 327 325 324 324 323 322 322 322 321 321 320 320 320 320 321 322 323 324 324 324 325 326 326 325 323 320 318 315 312 310 308 304 300 296 292 288 282 279 277 273 266 261 260 258 255 251 250 248 245 243 242 241 240 239 239 238 237 237 237 237 237 237 237
332 332 332 333 333 334 334 334 334 334 333 333 332 331 331 331 331 331 331 330 330 329 326 324 323 323 321 321 320 320 320 319 319 319 319 319 320 321 322 323 323 323 324 324 325 324 323 321 319 316 313 311 309 306 303 299 295 291 287 282 279 278 273 266 261 259 258 255 252 250 248 245 243 242 241 240 239 239 239 238 237 237 237 237 237
332 332 333 333 333 333 333 333 333 333 332 332 331 331 330 330 330 331 330 330 329 328 325 323 323 322 320 319 319 319 318 318 318 318 318 318 319 320 321 322 322 322 322 323 323 323 323 322 320 318 315 312 310 308 305 301 297 293 290 286 282 280 278 273 266 260 259 258 255 252 250 248 246 243 242 241 240 239 239 239 238 237 237 237 237
331 332 333 333 333 333 333 333 333 332 331 331 330 330 330 329 330 330 330 329 329 327 324 323 322 320 319 318 318 318 317 316 316 316 317 317 318 319 320 321 321 321 321 322 322 322 322 322 321 320 317 313 310 309 307 303 299 295 291 288 285 282 280 278 274 266 260 258 258 255 253 250 248 246 244 242 241 240 239 239 239 238 237 237 236
331 332 332 332 332 332 332 332 331 331 330 330 330 329 329 329 329 330 329 329 328 326 324 323 321 319 318 318 317 317 316 315 315 315 315 316 317 318 319 320 321 320 320 320 321 321 321 321 321 321 319 315 312 310 308 305 302 298 293 290 287 284 282 280 278 273 266 260 258 257 256 253 250 248 247 244 242 241 241 239 239 239 238 237 236
331 331 331 332 332 331 331 331 330 330 329 329 329 329 328 328 329 329 329 328 327 325 324 322 320 318 318 317 317 316 315 315 315 314 315 315 316 317 318 319 320 319 318 319 319 320 320 320 321 321 320 317 314 311 309 306 304 300 296 292 288 285 283 281 280 277 272 266 260 258 257 255 252 250 249 247 245 243 242 241 240 239 239 238 237
330 330 331 331 331 330 330 329 329 329 329 329 329 328 327 328 328 328 328 327 325 324 323 321 319 318 318 317 316 315 314 314 314 313 314 314 315 316 317 317 318 318 317 317 318 318 318 319 320 320 320 319 316 312 309 307 305 302 299 295 290 286 283 282 281 279 276 271 265 260 258 257 255 252 250 249 247 245 243 242 241 240 239 239 238
329 329 330 330 330 329 329 328 328 328 328 329 328 327 326 327 327 328 328 326 324 324 323 320 319 318 318 317 315 314 313 313 313 313 313 313 315 315 315 316 317 317 316 316 317 317 317 318 318 319 319 319 317 314 311 308 306 303 300 298 294 289 284 282 281 280 278 276 271 265 260 258 256 254 252 250 248 247 245 243 243 242 240 239 238
329 329 329 329 329 328 327 327 327 328 328 328 327 326 325 326 326 327 327 325 324 323 322 320 319 319 318 316 315 313 313 312 312 312 312 313 313 314 314 315 315 315 315 315 315 316 317 317 317 318 318 319 318 316 313 310 307 304 301 299 297 293 287 284 282 281 280 278 275 271 265 261 258 256 254 251 249 248 247 245 244 243 242 241 239
328 328 328 328 327 326 326 326 326 327 328 328 326 325 324 325 325 326 325 324 323 323 321 320 320 319 318 316 315 313 312 312 311 312 312 312 313 313 313 313 314 314 314 314 314 315 315 316 316 316 317 318 318 316 315 311 308 305 302 300 298 295 291 286 283 282 281 280 278 274 270 265 261 258 256 253 251 249 247 246 245 244 243 242 241
327 327 326 326 326 325 325 325 326 327 327 327 325 324 324 324 325 325 324 323 323 322 322 322 321 320 318 316 314 313 312 311 311 311 311 312 312 312 312 312 313 313 313 313 313 314 314 315 315 315 316 317 317 317 315 313 309 306 303 301 299 296 293 289 285 283 282 281 279 277 273 268 264 260 258 255 253 251 249 247 245 244 243 243 243
326 325 325 325 324 324 325 325 326 326 326 326 324 323 323 323 324 324 324 323 322 322 322 322 321 319 317 316 314 313 312 311 310 311 311 311 311 311 311 311 311 312 312 312 312 313 313 314 314 314 315 316 316 316 316 314 312 308 304 302 299 297 294 291 287 284 282 281 280 278 276 272 267 263 260 257 255 253 251 249 246 244 243 243 244
324 324 324 324 324 324 324 325 325 325 325 324 323 322 322 323 323 323 323 322 322 322 322 322 320 319 317 315 314 312 311 310 310 310 310 311 310 310 310 310 310 311 311 311 311 311 312 312 313 313 314 314 315 315 315 315 313 310 307 303 301 298 296 292 289 285 282 281 281 280 278 275 271 266 262 259 257 254 252 251 249 247 245 243 243
323 323 323 323 323 323 323 324 324 324 324 323 322 321 322 323 323 323 322 322 322 322 322 321 319 317 316 315 313 312 311 310 310 310 310 310 310 310 310 309 309 310 310 310 310 310 311 311 312 312 313 313 314 314 314 314 314 312 309 306 303 300 297 294 291 287 284 282 282 280 279 277 275 271 266 262 259 256 253 251 250 250 248 245 244
321 321 322 322 322 322 323 323 323 323 323 322 321 321 321 322 322 322 321 322 322 322 321 319 318 317 316 314 313 312 311 310 309 309 309 309 309 309 309 309 309 309 309 309 309 309 309 310 311 312 312 313 313 313 313 313 313 312 310 306 303 301 298 295 293 289 286 284 282 281 280 278 276 274 270 266 262 258 255 252 250 249 249 248 246
320 321 321 322 322 322 322 322 322 323 323 322 321 320 321 322 322 321 321 322 322 321 320 318 317 316 316 315 313 312 311 310 309 309 309 309 309 308 308 308 308 307 308 308 308 308 308 309 310 310 311 311 312 312 313 313 313 313 312 309 305 302 299 297 294 292 289 285 282 280 280 279 277 275 273 270 266 261 258 255 252 250 249 248 248
320 321 321 321 321 321 322 322 322 322 322 321 321 320 320 321 321 320 321 322 321 320 319 318 317 316 316 315 314 313 311 310 309 309 308 308 308 307 307 307 307 307 307 307 307 307 307 307 308 309 309 310 311 311 311 312 312 313 313 311 308 304 301 298 296 294 291 288 284 280 278 278 277 275 273 271 269 265 261 257 254 252 250 248 248
320 320 320 321 321 321 322 321 321 321 321 321 320 319 319 320 320 320 320 321 320 319 318 317 317 316 316 315 314 313 312 310 309 308 308 308 307 307 306 307 307 307 307 306 306 306 306 306 306 307 308 309 309 310 310 310 311 312 312 312 310 306 302 299 297 295 294 291 287 282 278 277 276 275 274 272 270 268 265 261 257 254 252 250 248
320 320 320 320 320 321 321 321 320 320 320 320 320 318 317 318 319 319 320 320 319 319 318 317 317 317 316 316 315 313 312 310 309 308 307 307 306 306 306 306 307 307 306 305 304 304 305 305 305 306 307 308 309 309 310 310 310 311 312 312 311 308 304 300 298 296 294 293 290 285 280 277 275 275 275 273 271 269 267 264 261 258 255 252 250
319 320 320 320 320 320 320 319 319 318 318 319 319 317 316 317 318 319 319 319 318 318 317 317 317 317 317 316 315 313 312 310 309 308 307 306 306 306 306 306 306 306 305 304 303 303 304 304 304 305 306 307 307 308 308 308 309 310 311 312 311 309 306 302 299 296 294 292 291 288 284 279 276 275 275 274 273 271 269 266 264 261 258 255 253